Overview Statistics Trail Chart Weather Telemetry Raw packets
 

This is the latest recevied weather packets stored in our database for station/object SA7AHC. If no packets are shown the sender has not sent any weather packets the latest 10 day(s).

<< 18 19 20 21 22 23 24 >>
Time Temp. Humidity Pressure Rain* Wind** Luminosity Snow
1788348721 16.11° C 86% 1014.6 hPa 0 mm - 183 W/m² -
1788348121 16.67° C 83% 1014.8 hPa 0 mm - 79 W/m² -
1788347522 16.67° C 81% 1014.8 hPa 0 mm - 132 W/m² -
1788346921 17.22° C 81% 1014.8 hPa 0 mm - 179 W/m² -
1788346321 16.67° C 82% 1014.9 hPa 0 mm - 302 W/m² -
1788345721 17.22° C 83% 1014.9 hPa 0 mm - 174 W/m² -
1788345120 16.67° C 83% 1014.7 hPa 0 mm - 292 W/m² -
1788344520 16.67° C 83% 1014.7 hPa 0 mm - 650 W/m² -
1788343923 17.22° C 83% 1014.8 hPa 0 mm - 568 W/m² -
1788343322 16.67° C 86% 1015 hPa 0 mm - 775 W/m² -
1788342724 15.56° C 88% 1014.9 hPa 0 mm - 167 W/m² -
1788342121 15.56° C 88% 1014.9 hPa 0 mm - 213 W/m² -
1788341519 15.56° C 88% 1015 hPa 0 mm - 160 W/m² -
1788340917 15° C 91% 1015 hPa 0 mm - 230 W/m² -
1788340317 15° C 92% 1014.9 hPa 0 mm - 193 W/m² -
1788339717 14.44° C 93% 1014.9 hPa 0 mm - 130 W/m² -
1788339118 14.44° C 94% 1015 hPa 0 mm - 251 W/m² -
1788338511 13.89° C 95% 1015 hPa 0 mm - 137 W/m² -
1788337911 13.89° C 96% 1014.9 hPa 0 mm - 183 W/m² -
1788337308 13.33° C 97% 1014.8 hPa 0 mm - 156 W/m² -
1788336709 13.33° C 97% 1014.8 hPa 0 mm - 63 W/m² -
1788336102 13.33° C 98% 1014.8 hPa 0 mm - 56 W/m² -
1788335503 13.33° C 98% 1014.8 hPa 0 mm - 105 W/m² -
1788334895 12.78° C 98% 1014.8 hPa 0 mm - 81 W/m² -
1788334296 12.78° C 98% 1014.7 hPa 0 mm - 65 W/m² -

* Rain latest hour (hover to see other rain measurements)
** Current wind speed in m/s (hover to see current wind gust speed)